Date, Time, Voltage, Current, Power
2019/01/11, 14:53:57, 103.5, 0.888, 89.2
2019/01/11, 14:54:57, 103.5, 0.994, 100.1
2019/01/11, 14:55:57, 103.6, 0.919, 92.5
2019/01/11, 14:56:57, 103.8, 0.291, 27.9
2019/01/11, 14:57:57, 103.9, 0.231, 21.8
2019/01/11, 14:58:57, 103.9, 0.231, 21.8
2019/01/11, 14:59:57, 104.2, 0.230, 21.8
2019/01/11, 15:00:57, 104.3, 0.230, 21.8
2019/01/11, 15:01:57, 104.5, 0.230, 21.7
2019/01/11, 15:02:57, 104.2, 0.230, 21.7
2019/01/11, 15:03:57, 104.3, 0.230, 21.7
2019/01/11, 15:04:57, 104.1, 0.230, 21.7
2019/01/11, 15:05:57, 104.3, 0.230, 21.7
2019/01/11, 15:06:57, 104.5, 0.230, 21.7
2019/01/11, 15:07:57, 104.4, 0.230, 21.8
2019/01/11, 15:08:57, 104.4, 0.230, 21.8
2019/01/11, 15:09:57, 104.3, 0.230, 21.7
2019/01/11, 15:10:57, 104.1, 0.230, 21.8
2019/01/11, 15:11:57, 103.9, 0.231, 21.7
2019/01/11, 15:12:57, 103.9, 0.231, 21.7
2019/01/11, 15:13:57, 103.6, 0.231, 21.7
2019/01/11, 15:14:57, 103.8, 0.231, 21.7
2019/01/11, 15:15:57, 103.8, 0.231, 21.7
2019/01/11, 15:16:57, 103.7, 0.231, 21.7
2019/01/11, 15:17:57, 103.6, 0.232, 21.7
2019/01/11, 15:18:57, 103.5, 0.232, 21.7
2019/01/11, 15:19:57, 103.7, 0.232, 21.8
2019/01/11, 15:20:57, 103.5, 0.232, 21.7
2019/01/11, 15:21:57, 103.4, 0.232, 21.7
2019/01/11, 15:22:57, 103.4, 0.233, 21.8
2019/01/11, 15:23:57, 103.4, 0.232, 21.8
2019/01/11, 15:24:57, 103.4, 0.232, 21.7
2019/01/11, 15:25:57, 103.9, 0.231, 21.7
2019/01/11, 15:26:57, 103.9, 0.231, 21.7
2019/01/11, 15:27:57, 103.3, 0.232, 21.7
2019/01/11, 15:28:57, 103.5, 0.232, 21.7
2019/01/11, 15:29:57, 103.4, 0.232, 21.7
2019/01/11, 15:30:57, 103.2, 0.233, 21.7
2019/01/11, 15:31:57, 103.8, 0.231, 21.7
2019/01/11, 15:32:57, 104.0, 0.231, 21.7
2019/01/11, 15:33:57, 104.0, 0.231, 21.7
2019/01/11, 15:34:57, 104.1, 0.231, 21.7
2019/01/11, 15:35:57, 103.9, 0.231, 21.7
2019/01/11, 15:36:57, 103.9, 0.231, 21.7
2019/01/11, 15:37:57, 104.0, 0.231, 21.7
2019/01/11, 15:38:57, 103.7, 0.231, 21.7
2019/01/11, 15:39:57, 103.9, 0.231, 21.7
2019/01/11, 15:40:57, 103.7, 0.231, 21.7
2019/01/11, 15:41:57, 103.7, 0.231, 21.7
2019/01/11, 15:42:57, 103.6, 0.231, 21.7
2019/01/11, 15:43:57, 104.0, 0.231, 21.7
2019/01/11, 15:44:57, 104.2, 0.230, 21.7
2019/01/11, 15:45:57, 103.9, 0.231, 21.7
2019/01/11, 15:46:57, 104.0, 0.231, 21.7
2019/01/11, 15:47:57, 103.8, 0.231, 21.8
2019/01/11, 15:48:57, 103.8, 0.231, 21.8
2019/01/11, 15:49:57, 103.7, 0.232, 21.8
2019/01/11, 15:50:57, 103.7, 0.200, 18.6
2019/01/11, 15:51:57, 103.8, 0.013, 0.3
2019/01/11, 15:52:57, 103.6, 0.014, 0.3
2019/01/11, 15:53:57, 103.8, 0.014, 0.3
2019/01/11, 15:54:57, 103.7, 0.013, 0.3
2019/01/11, 15:55:57, 103.8, 0.159, 14.6
2019/01/11, 15:56:57, 103.6, 0.220, 20.6
2019/01/11, 15:57:57, 103.6, 0.019, 0.9
2019/01/11, 15:58:57, 103.5, 0.014, 0.3
2019/01/11, 15:59:57, 103.6, 0.014, 0.4
2019/01/11, 16:00:57, 103.6, 0.014, 0.4
2019/01/11, 16:01:57, 103.5, 0.069, 5.8
2019/01/11, 16:02:57, 103.5, 0.220, 20.6
2019/01/11, 16:03:57, 104.0, 0.105, 9.4
2019/01/11, 16:04:57, 103.9, 0.014, 0.4
2019/01/11, 16:05:57, 103.7, 0.014, 0.4
2019/01/11, 16:06:57, 103.6, 0.014, 0.4
2019/01/11, 16:07:57, 103.7, 0.187, 17.3
2019/01/11, 16:08:57, 103.7, 0.199, 18.6
2019/01/11, 16:09:57, 103.5, 0.013, 0.3
2019/01/11, 16:10:57, 103.6, 0.014, 0.4
2019/01/11, 16:11:57, 103.5, 0.014, 0.4
2019/01/11, 16:12:57, 103.4, 0.014, 0.3
2019/01/11, 16:13:57, 103.2, 0.177, 16.4
2019/01/11, 16:14:57, 103.7, 0.196, 18.2
2019/01/11, 16:15:57, 104.0, 0.013, 0.3
2019/01/11, 16:16:57, 103.6, 0.014, 0.3
2019/01/11, 16:17:57, 103.6, 0.014, 0.4
2019/01/11, 16:18:57, 103.6, 0.013, 0.3
2019/01/11, 16:19:57, 103.5, 0.111, 9.9
2019/01/11, 16:20:57, 103.2, 0.221, 20.6
2019/01/11, 16:21:57, 103.0, 0.064, 5.3
2019/01/11, 16:22:57, 103.0, 0.025, 1.4
2019/01/11, 16:23:57, 102.9, 0.222, 20.7
2019/01/11, 16:24:57, 103.1, 0.151, 13.8
2019/01/11, 16:25:57, 103.1, 0.014, 0.3
2019/01/11, 16:26:57, 103.2, 0.014, 0.4
2019/01/11, 16:27:57, 103.2, 0.013, 0.3
2019/01/11, 16:28:57, 103.4, 0.021, 1.1
2019/01/11, 16:29:57, 103.2, 0.221, 20.6
2019/01/11, 16:30:57, 102.9, 0.176, 16.2
2019/01/11, 16:31:57, 102.9, 0.014, 0.3
2019/01/11, 16:32:57, 102.9, 0.014, 0.4
2019/01/11, 16:33:57, 102.7, 0.014, 0.4
2019/01/11, 16:34:57, 102.7, 0.013, 0.3
2019/01/11, 16:35:57, 102.7, 0.178, 16.3
2019/01/11, 16:36:57, 102.7, 0.209, 19.4
2019/01/11, 16:37:57, 102.7, 0.013, 0.3
2019/01/11, 16:38:57, 102.6, 0.014, 0.3
2019/01/11, 16:39:57, 102.7, 0.014, 0.4
2019/01/11, 16:40:57, 102.8, 0.014, 0.4
2019/01/11, 16:41:57, 102.7, 0.087, 7.5
2019/01/11, 16:42:57, 102.8, 0.222, 20.7
2019/01/11, 16:43:57, 102.7, 0.090, 7.7
2019/01/11, 16:44:56, 102.8, 0.014, 0.4
2019/01/11, 16:45:56, 102.7, 0.014, 0.4
2019/01/11, 16:46:56, 102.6, 0.013, 0.3
2019/01/11, 16:47:56, 102.6, 0.084, 7.2
2019/01/11, 16:48:56, 102.7, 0.222, 20.7
2019/01/11, 16:49:56, 102.7, 0.093, 8.1
2019/01/11, 16:50:56, 102.6, 0.014, 0.3
2019/01/11, 16:51:56, 102.6, 0.014, 0.4
2019/01/11, 16:52:56, 102.2, 0.014, 0.4
2019/01/11, 16:53:56, 102.3, 0.081, 6.9
2019/01/11, 16:54:56, 102.3, 0.223, 20.7
2019/01/11, 16:55:56, 102.3, 0.097, 8.5
2019/01/11, 16:56:56, 102.4, 0.014, 0.4
2019/01/11, 16:57:56, 103.1, 0.014, 0.4
2019/01/11, 16:58:56, 103.1, 0.014, 0.4
2019/01/11, 16:59:56, 103.2, 0.013, 0.3
2019/01/11, 17:00:56, 103.1, 0.152, 13.9
2019/01/11, 17:01:56, 103.2, 0.221, 20.7
2019/01/11, 17:02:56, 103.3, 0.024, 1.3
2019/01/11, 17:03:56, 103.1, 0.014, 0.4
2019/01/11, 17:04:56, 102.9, 0.014, 0.4
2019/01/11, 17:05:56, 103.2, 0.014, 0.3
2019/01/11, 17:06:56, 103.1, 0.028, 1.7
2019/01/11, 17:07:56, 102.9, 0.222, 20.7
2019/01/11, 17:08:56, 102.9, 0.138, 12.5
2019/01/11, 17:09:56, 102.8, 0.642, 63.6
2019/01/11, 17:10:56, 102.5, 0.929, 92.5
2019/01/11, 17:11:56, 102.5, 0.847, 84.2
2019/01/11, 17:12:56, 103.1, 0.778, 77.5
2019/01/11, 17:13:56, 102.7, 0.909, 90.6
2019/01/11, 17:14:56, 102.6, 0.941, 93.8
2019/01/11, 17:15:56, 102.5, 0.950, 94.7
2019/01/11, 17:16:56, 102.5, 0.944, 94.0
2019/01/11, 17:17:56, 102.4, 0.904, 89.9
2019/01/11, 17:18:56, 102.5, 0.865, 86.0
2019/01/11, 17:19:56, 102.4, 0.876, 87.1
2019/01/11, 17:20:56, 102.5, 0.936, 93.3
2019/01/11, 17:21:56, 102.4, 0.938, 93.4
2019/01/11, 17:22:56, 102.6, 0.948, 94.6
2019/01/11, 17:23:57, 102.3, 0.951, 94.6
2019/01/11, 17:24:57, 102.3, 0.956, 95.1
2019/01/11, 17:25:57, 102.4, 0.928, 92.4
2019/01/11, 17:26:57, 102.5, 0.956, 95.3
2019/01/11, 17:27:57, 102.4, 0.876, 87.1
2019/01/11, 17:28:57, 102.5, 0.862, 85.7
2019/01/11, 17:29:57, 102.5, 0.897, 89.2
2019/01/11, 17:30:57, 102.6, 0.946, 94.3
2019/01/11, 17:31:57, 102.5, 0.956, 95.2
2019/01/11, 17:32:57, 102.5, 0.956, 95.2
2019/01/11, 17:33:57, 102.2, 0.930, 92.3
2019/01/11, 17:34:57, 102.3, 0.951, 94.6
2019/01/11, 17:35:57, 102.4, 0.889, 88.3
2019/01/11, 17:36:57, 102.2, 0.902, 89.6
2019/01/11, 17:37:57, 102.2, 0.905, 89.9
2019/01/11, 17:38:57, 102.0, 0.937, 93.0
2019/01/11, 17:39:57, 102.0, 0.935, 92.7
2019/01/11, 17:40:57, 102.1, 0.932, 92.5
2019/01/11, 17:41:57, 102.2, 0.939, 93.3
2019/01/11, 17:42:57, 102.2, 0.937, 93.1
2019/01/11, 17:43:57, 102.1, 0.946, 93.9
2019/01/11, 17:44:57, 101.9, 0.934, 92.6
2019/01/11, 17:45:57, 101.9, 0.943, 93.5
2019/01/11, 17:46:57, 102.1, 0.650, 63.8
2019/01/11, 17:47:57, 102.3, 0.228, 21.1
2019/01/11, 17:48:57, 102.5, 0.228, 21.1
2019/01/11, 17:49:57, 102.6, 0.227, 21.1
2019/01/11, 17:50:57, 102.5, 0.228, 21.1
2019/01/11, 17:51:57, 102.3, 0.228, 21.1
2019/01/11, 17:52:57, 102.4, 0.017, 0.7
2019/01/11, 17:53:57, 102.4, 0.014, 0.3
2019/01/11, 17:54:57, 102.6, 0.100, 8.6
2019/01/11, 17:55:57, 102.5, 0.221, 20.5
2019/01/11, 17:56:57, 102.4, 0.078, 6.6
2019/01/11, 17:57:57, 102.3, 0.014, 0.3
2019/01/11, 17:58:57, 102.6, 0.014, 0.4
2019/01/11, 17:59:57, 102.6, 0.014, 0.4
2019/01/11, 18:00:57, 102.5, 0.014, 0.3
2019/01/11, 18:01:57, 102.4, 0.191, 17.6
2019/01/11, 18:02:57, 102.6, 0.220, 20.5
2019/01/11, 18:03:57, 102.6, 0.203, 18.8
2019/01/11, 18:04:57, 102.8, 0.013, 0.2
2019/01/11, 18:05:57, 102.7, 0.014, 0.4
2019/01/11, 18:06:57, 102.7, 0.014, 0.3
2019/01/11, 18:07:57, 102.5, 0.019, 0.8
2019/01/11, 18:08:57, 102.6, 0.220, 20.5
2019/01/11, 18:09:57, 102.7, 0.221, 20.5
2019/01/11, 18:10:57, 102.5, 0.221, 20.6
2019/01/11, 18:11:57, 102.5, 0.222, 20.6
2019/01/11, 18:12:57, 102.5, 0.222, 20.7
2019/01/11, 18:13:57, 102.7, 0.222, 20.7
2019/01/11, 18:14:57, 102.6, 0.024, 1.3
2019/01/11, 18:15:57, 102.7, 0.014, 0.4
2019/01/11, 18:16:57, 102.6, 0.014, 0.4
2019/01/11, 18:17:57, 102.5, 0.013, 0.3
2019/01/11, 18:18:57, 102.6, 0.214, 19.8
2019/01/11, 18:19:57, 102.7, 0.160, 14.6
2019/01/11, 18:20:57, 102.8, 0.013, 0.3
2019/01/11, 18:21:57, 102.5, 0.014, 0.3
2019/01/11, 18:22:57, 102.6, 0.027, 1.6
2019/01/11, 18:23:57, 102.4, 0.221, 20.6
2019/01/11, 18:24:57, 102.4, 0.150, 13.6
2019/01/11, 18:25:57, 102.6, 0.368, 36.0
2019/01/11, 18:26:57, 102.6, 0.964, 96.3
2019/01/11, 18:27:57, 102.5, 0.964, 96.2
2019/01/11, 18:28:57, 102.8, 0.965, 96.4
2019/01/11, 18:29:57, 102.4, 0.991, 98.8
2019/01/11, 18:30:57, 102.1, 0.976, 97.0
2019/01/11, 18:31:57, 102.2, 0.827, 81.9
2019/01/11, 18:32:57, 102.3, 0.788, 78.1
2019/01/11, 18:33:57, 102.3, 0.976, 97.1
2019/01/11, 18:34:57, 101.4, 0.978, 96.5
2019/01/11, 18:35:57, 101.1, 0.970, 95.5
2019/01/11, 18:36:57, 102.3, 0.945, 94.0
2019/01/11, 18:37:57, 102.0, 0.943, 93.6
2019/01/11, 18:38:57, 100.9, 0.961, 94.4
2019/01/11, 18:39:57, 101.6, 0.945, 93.3
2019/01/11, 18:40:57, 102.3, 0.936, 93.1
2019/01/11, 18:41:57, 102.5, 0.972, 96.9
2019/01/11, 18:42:57, 102.6, 0.829, 82.4
2019/01/11, 18:43:57, 102.3, 0.875, 86.9
2019/01/11, 18:44:57, 102.3, 0.862, 85.5
2019/01/11, 18:45:57, 102.5, 0.976, 97.3
2019/01/11, 18:46:57, 102.2, 0.983, 97.8
2019/01/11, 18:47:57, 102.4, 1.007, 100.4
2019/01/11, 18:48:57, 102.4, 0.965, 96.1
2019/01/11, 18:49:57, 102.3, 0.983, 97.8
2019/01/11, 18:50:57, 102.5, 0.958, 95.6
2019/01/11, 18:51:57, 102.3, 0.965, 96.1
2019/01/11, 18:52:57, 102.4, 0.930, 92.6
2019/01/11, 18:53:57, 102.1, 0.852, 84.4
2019/01/11, 18:54:57, 102.0, 0.890, 88.1
2019/01/11, 18:55:57, 102.0, 0.996, 98.9
2019/01/11, 18:56:57, 102.1, 0.997, 99.1
2019/01/11, 18:57:57, 102.1, 0.978, 97.2
2019/01/11, 18:58:57, 102.1, 0.975, 96.9
2019/01/11, 18:59:57, 102.1, 0.984, 97.8
2019/01/11, 19:00:57, 102.1, 0.985, 97.9
2019/01/11, 19:01:57, 102.3, 0.967, 96.2
2019/01/11, 19:02:57, 102.2, 0.986, 98.1
2019/01/11, 19:03:57, 102.2, 1.006, 100.0
2019/01/11, 19:04:57, 102.0, 1.005, 99.9
2019/01/11, 19:05:57, 102.2, 0.992, 98.7
2019/01/11, 19:06:57, 102.2, 0.995, 98.9
2019/01/11, 19:07:57, 102.2, 0.999, 99.3
2019/01/11, 19:08:57, 102.3, 0.960, 95.4
2019/01/11, 19:09:57, 102.2, 0.984, 97.8
2019/01/11, 19:10:57, 102.2, 0.977, 97.1
2019/01/11, 19:11:57, 102.3, 0.967, 96.2
2019/01/11, 19:12:57, 102.4, 0.977, 97.3
2019/01/11, 19:13:57, 102.4, 0.962, 95.8
2019/01/11, 19:14:57, 102.3, 0.692, 68.3
2019/01/11, 19:15:57, 102.6, 0.229, 21.2
2019/01/11, 19:16:57, 102.6, 0.229, 21.2
2019/01/11, 19:17:57, 102.6, 0.229, 21.2
2019/01/11, 19:18:57, 102.1, 0.229, 21.2
2019/01/11, 19:19:57, 102.5, 0.228, 21.2
2019/01/11, 19:20:57, 102.5, 0.106, 9.3
2019/01/11, 19:21:57, 102.5, 0.014, 0.3
2019/01/11, 19:22:57, 102.6, 0.014, 0.4
2019/01/11, 19:23:57, 102.5, 0.021, 1.1
2019/01/11, 19:24:57, 102.0, 0.973, 96.6
2019/01/11, 19:25:57, 102.2, 1.001, 99.5
2019/01/11, 19:26:57, 102.2, 1.000, 99.5
2019/01/11, 19:27:57, 102.3, 1.000, 99.6
2019/01/11, 19:28:57, 102.3, 0.992, 98.7
2019/01/11, 19:29:57, 102.3, 0.979, 97.4
2019/01/11, 19:30:57, 101.9, 0.992, 98.3
2019/01/11, 19:31:57, 100.7, 1.015, 99.6
2019/01/11, 19:32:57, 101.0, 1.003, 98.7
2019/01/11, 19:33:57, 101.5, 0.995, 98.3
2019/01/11, 19:34:57, 101.3, 0.999, 98.5
2019/01/11, 19:35:57, 101.1, 1.001, 98.6
2019/01/11, 19:36:57, 101.2, 0.958, 94.3
2019/01/11, 19:37:57, 101.1, 0.988, 97.3
2019/01/11, 19:38:57, 101.4, 0.902, 88.9
2019/01/11, 19:39:57, 102.7, 0.799, 79.4
2019/01/11, 19:40:57, 102.8, 0.943, 94.2
2019/01/11, 19:41:57, 102.7, 0.918, 91.6
2019/01/11, 19:42:57, 102.9, 0.924, 92.4
2019/01/11, 19:43:57, 102.7, 0.923, 92.2
2019/01/11, 19:44:57, 102.7, 0.926, 92.4
2019/01/11, 19:45:57, 102.5, 0.971, 96.9
2019/01/11, 19:46:57, 103.1, 0.972, 97.5
2019/01/11, 19:47:57, 102.6, 0.964, 96.3
2019/01/11, 19:48:57, 102.5, 0.961, 95.9
2019/01/11, 19:49:57, 102.4, 0.966, 96.3
2019/01/11, 19:50:57, 102.5, 0.947, 94.4
2019/01/11, 19:51:57, 101.9, 0.873, 86.3
2019/01/11, 19:52:57, 102.3, 0.938, 93.3
2019/01/11, 19:53:57, 102.8, 0.949, 94.9
2019/01/11, 19:54:57, 102.8, 0.926, 92.5
2019/01/11, 19:55:57, 102.8, 0.940, 94.0
2019/01/11, 19:56:57, 102.9, 0.947, 94.8
2019/01/11, 19:57:57, 102.8, 0.963, 96.3
2019/01/11, 19:58:57, 103.0, 0.971, 97.3
2019/01/11, 19:59:57, 102.8, 0.923, 92.2
2019/01/11, 20:00:57, 103.1, 0.947, 95.0
2019/01/11, 20:01:57, 103.2, 0.834, 83.5
2019/01/11, 20:02:57, 103.3, 0.770, 76.9
2019/01/11, 20:03:57, 103.2, 0.923, 92.6
2019/01/11, 20:04:57, 102.9, 0.949, 95.0
2019/01/11, 20:05:57, 102.8, 0.810, 80.6
2019/01/11, 20:06:57, 103.0, 0.748, 74.4
2019/01/11, 20:07:57, 102.9, 0.885, 88.3
2019/01/11, 20:08:57, 103.0, 0.817, 81.5
2019/01/11, 20:09:57, 102.9, 0.824, 82.2
2019/01/11, 20:10:57, 102.9, 0.808, 80.5
2019/01/11, 20:11:57, 102.6, 0.959, 95.6
2019/01/11, 20:12:57, 102.4, 0.991, 98.7
2019/01/11, 20:13:57, 102.4, 0.771, 76.3
2019/01/11, 20:14:57, 102.6, 0.747, 73.9
2019/01/11, 20:15:57, 102.4, 0.914, 90.9
2019/01/11, 20:16:57, 102.3, 0.958, 95.3
2019/01/11, 20:17:57, 102.4, 0.933, 92.9
2019/01/11, 20:18:57, 102.6, 0.906, 90.3
2019/01/11, 20:19:57, 102.6, 0.961, 95.8
2019/01/11, 20:20:57, 102.6, 0.941, 93.8
2019/01/11, 20:21:57, 102.4, 0.881, 87.5
2019/01/11, 20:22:57, 102.3, 0.946, 94.1
2019/01/11, 20:23:57, 102.1, 0.930, 92.4
2019/01/11, 20:24:57, 102.1, 0.943, 93.6
2019/01/11, 20:25:57, 102.1, 0.951, 94.5
2019/01/11, 20:26:57, 102.1, 0.955, 94.8
2019/01/11, 20:27:57, 102.2, 0.963, 95.8
2019/01/11, 20:28:57, 102.4, 0.909, 90.4
2019/01/11, 20:29:57, 102.5, 0.834, 82.9
2019/01/11, 20:30:57, 102.3, 0.873, 86.6
2019/01/11, 20:31:57, 102.1, 0.940, 93.3
2019/01/11, 20:32:57, 102.3, 0.833, 82.6
2019/01/11, 20:33:57, 102.2, 0.896, 88.9
2019/01/11, 20:34:57, 102.3, 0.791, 78.3
2019/01/11, 20:35:57, 102.4, 0.865, 86.0
2019/01/11, 20:36:57, 102.5, 0.863, 85.8
2019/01/11, 20:37:57, 102.3, 0.965, 96.0
2019/01/11, 20:38:57, 102.4, 0.945, 94.0
2019/01/11, 20:39:57, 102.4, 0.909, 90.4
2019/01/11, 20:40:57, 102.5, 0.963, 96.0
2019/01/11, 20:41:57, 102.5, 0.959, 95.5
2019/01/11, 20:42:57, 102.6, 0.935, 93.2
2019/01/11, 20:43:57, 102.4, 0.938, 93.4
2019/01/11, 20:44:57, 102.4, 0.960, 95.5
2019/01/11, 20:45:57, 102.5, 0.922, 91.8
2019/01/11, 20:46:57, 102.4, 0.854, 84.8
2019/01/11, 20:47:57, 102.6, 0.819, 81.4
2019/01/11, 20:48:57, 102.6, 0.782, 77.6
2019/01/11, 20:49:57, 102.7, 0.801, 79.6
2019/01/11, 20:50:57, 102.6, 0.915, 91.3
2019/01/11, 20:51:57, 102.5, 0.984, 98.1
2019/01/11, 20:52:57, 102.7, 0.705, 69.8
2019/01/11, 20:53:57, 102.9, 0.688, 68.2
2019/01/11, 20:54:57, 102.9, 0.829, 82.7
2019/01/11, 20:55:57, 103.0, 0.659, 65.3
2019/01/11, 20:56:57, 103.1, 0.671, 66.6
2019/01/11, 20:57:57, 102.5, 0.709, 70.0
2019/01/11, 20:58:57, 102.1, 0.921, 91.3
2019/01/11, 20:59:57, 102.4, 0.895, 89.0
2019/01/11, 21:00:57, 102.4, 0.853, 84.6
2019/01/11, 21:01:57, 102.3, 0.870, 86.3
2019/01/11, 21:02:57, 102.3, 0.809, 80.1
2019/01/11, 21:03:57, 102.2, 0.903, 89.7
2019/01/11, 21:04:57, 102.2, 0.812, 80.4
2019/01/11, 21:05:57, 102.3, 0.931, 92.6
2019/01/11, 21:06:57, 102.1, 0.796, 78.7
2019/01/11, 21:07:57, 102.4, 0.879, 87.3
2019/01/11, 21:08:57, 102.3, 0.937, 93.2
2019/01/11, 21:09:57, 102.5, 0.966, 96.3
2019/01/11, 21:10:57, 101.7, 1.005, 99.5
2019/01/11, 21:11:57, 102.1, 1.012, 100.6
2019/01/11, 21:12:57, 102.5, 0.985, 98.2
2019/01/11, 21:13:57, 102.0, 0.986, 97.9
2019/01/11, 21:14:57, 101.9, 0.968, 96.0
2019/01/11, 21:15:57, 102.1, 0.907, 89.9
2019/01/11, 21:16:57, 102.1, 0.859, 85.1
2019/01/11, 21:17:57, 102.2, 0.874, 86.7
2019/01/11, 21:18:57, 102.0, 0.776, 76.6
2019/01/11, 21:19:57, 102.1, 0.759, 75.0
2019/01/11, 21:20:57, 102.4, 0.771, 76.4
2019/01/11, 21:21:57, 102.3, 0.756, 74.7
2019/01/11, 21:22:57, 102.3, 0.783, 77.5
2019/01/11, 21:23:57, 102.0, 0.877, 86.8
2019/01/11, 21:24:57, 102.0, 0.941, 93.3
2019/01/11, 21:25:57, 102.3, 0.957, 95.2
2019/01/11, 21:26:57, 101.7, 0.915, 90.4
2019/01/11, 21:27:57, 101.6, 0.928, 91.6
2019/01/11, 21:28:57, 101.7, 0.934, 92.3
2019/01/11, 21:29:57, 101.6, 0.927, 91.5
2019/01/11, 21:30:57, 101.5, 0.896, 88.4
2019/01/11, 21:31:57, 101.8, 0.905, 89.5
2019/01/11, 21:32:57, 101.7, 0.918, 90.6
2019/01/11, 21:33:57, 101.7, 0.941, 93.1
2019/01/11, 21:34:57, 101.7, 0.924, 91.3
2019/01/11, 21:35:57, 101.6, 0.921, 90.9
2019/01/11, 21:36:57, 101.6, 0.921, 91.0
2019/01/11, 21:37:57, 101.7, 0.932, 92.1
2019/01/11, 21:38:57, 101.8, 0.930, 92.0
2019/01/11, 21:39:57, 101.6, 0.903, 89.1
2019/01/11, 21:40:57, 101.6, 0.918, 90.7
2019/01/11, 21:41:57, 101.7, 0.915, 90.4
2019/01/11, 21:42:57, 101.6, 0.949, 93.8
2019/01/11, 21:43:57, 101.9, 0.935, 92.6
2019/01/11, 21:44:57, 101.9, 0.961, 95.2
2019/01/11, 21:45:57, 102.1, 0.944, 93.7
2019/01/11, 21:46:57, 103.3, 0.923, 92.7
2019/01/11, 21:47:57, 103.4, 0.968, 97.4
2019/01/11, 21:48:57, 103.4, 0.972, 97.7
2019/01/11, 21:49:57, 103.5, 0.947, 95.3
2019/01/11, 21:50:57, 103.4, 0.914, 91.8
2019/01/11, 21:51:57, 103.4, 0.909, 91.3
2019/01/11, 21:52:57, 103.2, 0.928, 93.1
2019/01/11, 21:53:57, 103.4, 0.920, 92.4
2019/01/11, 21:54:57, 103.4, 0.941, 94.6
2019/01/11, 21:55:57, 103.5, 0.946, 95.1
2019/01/11, 21:56:56, 103.5, 0.955, 96.0
2019/01/11, 21:57:57, 103.5, 0.956, 96.2
2019/01/11, 21:58:56, 103.5, 0.960, 96.7
2019/01/11, 21:59:56, 103.5, 0.941, 94.7
2019/01/11, 22:00:56, 102.5, 0.911, 90.7
2019/01/11, 22:01:56, 102.0, 0.947, 93.9
2019/01/11, 22:02:56, 101.9, 0.961, 95.3
2019/01/11, 22:03:56, 101.8, 0.964, 95.5
2019/01/11, 22:04:56, 101.9, 0.972, 96.4
2019/01/11, 22:05:56, 101.9, 0.992, 98.3
2019/01/11, 22:06:56, 102.5, 0.972, 96.9
2019/01/11, 22:07:56, 102.7, 0.903, 90.1
2019/01/11, 22:08:56, 102.7, 0.936, 93.4
2019/01/11, 22:09:56, 102.6, 0.922, 91.9
2019/01/11, 22:10:56, 102.2, 0.915, 90.8
2019/01/11, 22:11:56, 101.9, 0.806, 79.5
2019/01/11, 22:12:56, 102.8, 0.801, 79.7
2019/01/11, 22:13:56, 102.7, 0.788, 78.3
2019/01/11, 22:14:57, 102.6, 0.787, 78.2
2019/01/11, 22:15:57, 102.5, 0.775, 76.8
2019/01/11, 22:16:57, 102.7, 0.766, 76.0
2019/01/11, 22:17:57, 102.9, 0.797, 79.4
2019/01/11, 22:18:57, 102.8, 0.832, 82.9
2019/01/11, 22:19:57, 102.9, 0.775, 77.1
2019/01/11, 22:20:57, 103.0, 0.777, 77.4
2019/01/11, 22:21:57, 102.9, 0.821, 81.9
2019/01/11, 22:22:57, 103.0, 0.774, 77.1
2019/01/11, 22:23:57, 103.3, 0.759, 75.7
2019/01/11, 22:24:57, 103.3, 0.761, 75.9
2019/01/11, 22:25:57, 103.2, 0.811, 81.1
2019/01/11, 22:26:57, 103.6, 0.826, 83.0
2019/01/11, 22:27:57, 103.6, 0.818, 82.0
2019/01/11, 22:28:57, 103.7, 0.805, 80.8
2019/01/11, 22:29:57, 103.6, 0.813, 81.5
2019/01/11, 22:30:57, 103.4, 0.835, 83.6
2019/01/11, 22:31:57, 103.1, 0.827, 82.6
2019/01/11, 22:32:57, 103.1, 0.806, 80.4
2019/01/11, 22:33:57, 103.2, 0.779, 77.8
2019/01/11, 22:34:57, 103.2, 0.747, 74.4
2019/01/11, 22:35:57, 103.2, 0.808, 80.7
2019/01/11, 22:36:57, 103.3, 0.825, 82.6
2019/01/11, 22:37:57, 103.0, 0.830, 82.9
2019/01/11, 22:38:57, 103.1, 0.825, 82.4
2019/01/11, 22:39:57, 103.2, 0.822, 82.2
2019/01/11, 22:40:57, 103.3, 0.833, 83.4
2019/01/11, 22:41:57, 103.6, 0.813, 81.6
2019/01/11, 22:42:57, 103.5, 0.755, 75.5
2019/01/11, 22:43:57, 103.4, 0.736, 73.5
2019/01/11, 22:44:57, 103.8, 0.722, 72.3
2019/01/11, 22:45:57, 103.4, 0.710, 70.8
2019/01/11, 22:46:57, 103.5, 0.702, 70.0
2019/01/11, 22:47:57, 103.2, 0.660, 65.5
2019/01/11, 22:48:57, 103.3, 0.315, 30.2
2019/01/11, 22:49:57, 103.6, 0.226, 21.2
2019/01/11, 22:50:57, 103.9, 0.225, 21.2
2019/01/11, 22:51:57, 103.6, 0.226, 21.2
2019/01/11, 22:52:57, 103.8, 0.226, 21.2
2019/01/11, 22:53:57, 103.6, 0.226, 21.2
2019/01/11, 22:54:57, 103.8, 0.225, 21.2
2019/01/11, 22:55:57, 103.6, 0.226, 21.2
2019/01/11, 22:56:57, 104.1, 0.225, 21.2
2019/01/11, 22:57:57, 104.1, 0.224, 21.2
2019/01/11, 22:58:57, 104.3, 0.224, 21.2
2019/01/11, 22:59:57, 103.7, 0.225, 21.2
2019/01/11, 23:00:57, 102.6, 0.228, 21.2
2019/01/11, 23:01:57, 102.1, 0.229, 21.1
2019/01/11, 23:02:57, 101.8, 0.229, 21.1
2019/01/11, 23:03:57, 102.0, 0.229, 21.1
2019/01/11, 23:04:57, 101.9, 0.067, 5.4
2019/01/11, 23:05:57, 102.0, 0.014, 0.4
2019/01/11, 23:06:57, 102.2, 0.014, 0.4
2019/01/11, 23:07:57, 102.2, 0.014, 0.4
2019/01/11, 23:08:57, 102.3, 0.014, 0.4
2019/01/11, 23:09:57, 102.2, 0.176, 16.1
2019/01/11, 23:10:57, 102.1, 0.208, 19.2
2019/01/11, 23:11:57, 102.1, 0.013, 0.2
2019/01/11, 23:12:57, 102.3, 0.014, 0.4
2019/01/11, 23:13:57, 101.7, 0.014, 0.4
2019/01/11, 23:14:57, 101.5, 0.014, 0.4
2019/01/11, 23:15:57, 101.4, 0.175, 15.8
2019/01/11, 23:16:57, 101.9, 0.213, 19.6
2019/01/11, 23:17:57, 101.4, 0.012, 0.2
2019/01/11, 23:18:57, 101.8, 0.014, 0.4
2019/01/11, 23:19:57, 102.0, 0.014, 0.4
2019/01/11, 23:20:57, 102.4, 0.014, 0.4
2019/01/11, 23:21:57, 102.3, 0.156, 14.1
2019/01/11, 23:22:57, 102.3, 0.223, 20.7
2019/01/11, 23:23:57, 102.7, 0.020, 1.0
2019/01/11, 23:24:57, 102.5, 0.014, 0.4
2019/01/11, 23:25:57, 102.5, 0.015, 0.4
2019/01/11, 23:26:57, 102.6, 0.014, 0.4
2019/01/11, 23:27:57, 102.9, 0.030, 2.0
2019/01/11, 23:28:57, 102.8, 0.223, 20.7
2019/01/11, 23:29:57, 102.6, 0.145, 13.1
2019/01/11, 23:30:57, 102.5, 0.195, 17.9
2019/01/11, 23:31:57, 102.5, 0.192, 17.7
2019/01/11, 23:32:57, 102.6, 0.013, 0.3
2019/01/11, 23:33:57, 102.7, 0.014, 0.4
2019/01/11, 23:34:57, 102.8, 0.014, 0.4
2019/01/11, 23:35:57, 102.8, 0.014, 0.4
2019/01/11, 23:36:57, 102.9, 0.191, 17.6
2019/01/11, 23:37:57, 102.8, 0.198, 18.3
2019/01/11, 23:38:57, 102.9, 0.013, 0.2
2019/01/11, 23:39:57, 102.8, 0.014, 0.4
2019/01/11, 23:40:57, 103.2, 0.014, 0.4
2019/01/11, 23:41:57, 102.9, 0.014, 0.4
2019/01/11, 23:42:57, 102.9, 0.068, 5.7
2019/01/11, 23:43:57, 102.9, 0.223, 20.8
2019/01/11, 23:44:57, 102.8, 0.106, 9.3
2019/01/11, 23:45:57, 102.9, 0.014, 0.4
2019/01/11, 23:46:57, 103.2, 0.014, 0.4
2019/01/11, 23:47:57, 103.1, 0.014, 0.4
2019/01/11, 23:48:57, 103.0, 0.013, 0.3
2019/01/11, 23:49:57, 103.3, 0.151, 13.9
2019/01/11, 23:50:57, 103.5, 0.222, 20.8
2019/01/11, 23:51:57, 103.4, 0.024, 1.4
2019/01/11, 23:52:57, 102.8, 0.014, 0.4
2019/01/11, 23:53:57, 103.1, 0.014, 0.4
2019/01/11, 23:54:57, 103.3, 0.101, 8.9
2019/01/11, 23:55:57, 103.5, 0.222, 20.8
2019/01/11, 23:56:57, 103.0, 0.223, 20.8
2019/01/11, 23:57:57, 103.0, 0.229, 21.4
2019/01/11, 23:58:57, 103.2, 0.229, 21.5
2019/01/11, 23:59:57, 103.2, 0.230, 21.6
2019/01/12, 00:00:56, 103.4, 0.229, 21.5
2019/01/12, 00:01:56, 103.4, 0.229, 21.6
2019/01/12, 00:02:56, 104.2, 0.228, 21.5
2019/01/12, 00:03:56, 103.0, 0.230, 21.5
2019/01/12, 00:04:56, 102.1, 0.231, 21.5
2019/01/12, 00:05:56, 102.1, 0.231, 21.6
2019/01/12, 00:06:56, 102.2, 0.231, 21.5
2019/01/12, 00:07:56, 101.9, 0.232, 21.5
2019/01/12, 00:08:56, 102.0, 0.232, 21.5
2019/01/12, 00:09:56, 102.1, 0.232, 21.6
2019/01/12, 00:10:56, 102.0, 0.232, 21.5
2019/01/12, 00:11:56, 101.7, 0.232, 21.5
2019/01/12, 00:12:56, 101.7, 0.232, 21.6
2019/01/12, 00:13:56, 101.7, 0.232, 21.5
2019/01/12, 00:14:56, 101.8, 0.232, 21.5
2019/01/12, 00:15:56, 101.7, 0.232, 21.5
2019/01/12, 00:16:56, 101.8, 0.232, 21.5
2019/01/12, 00:17:56, 101.8, 0.207, 19.1
2019/01/12, 00:18:56, 102.5, 0.013, 0.3
2019/01/12, 00:19:56, 102.2, 0.014, 0.4
2019/01/12, 00:20:56, 102.2, 0.014, 0.4
2019/01/12, 00:21:56, 102.3, 0.014, 0.4
2019/01/12, 00:22:56, 102.6, 0.054, 4.2
2019/01/12, 00:23:56, 102.3, 0.223, 20.7
2019/01/12, 00:24:56, 102.3, 0.113, 10.0
2019/01/12, 00:25:56, 102.3, 0.015, 0.4